User: anonymous   Login
Location: Fort Wayne
(41.1310°N, 85.1290°W)
Time: 08:23:22
(UTC-05:00)
Language:

Cosmos 1980 - Orbit

View from above orbital plane
View from above orbital plane
View from above satellite
View from above satellite

Ground track
Ground track

The orbit data is extracted from the following two-line orbital elements,

1 19649U 88102A   14331.87493801  .00000132  00000-0  93590-4 0  9187
2 19649 071.0016 222.4893 0007786 286.5185 073.5082 14.14572336342728
Epoch (UTC): 27 November 2014 20:59:54
Eccentricity: 0.0007786
inclination: 71.0016°
perigee height: 838 km
apogee height: 849 km
right ascension of ascending node: 222.4893°
argument of perigee: 286.5185°
revolutions per day: 14.14572336
mean anomaly at epoch: 73.5082°
orbit number at epoch: 34272

The dashed part of the orbit path shows where the satellite is in the earth's shadow,  

DLR